EW8436 Weather Reports


Display with metric or nautical units.
time (UTC)temp
F
wind
direction
speed
MPH
gust
MPH
rain 1hr
in
rain 24hr
in
rain mn
in
humidity
%
barometer
mb
20260504201534 68 360 3.0 12.0 0.00 0.01 0.01 63 1007.6
20260504200038 65 360 0.0 5.0 0.01 0.01 0.01 68 1007.9
20260504194545 65 267 1.0 5.0 0.01 0.01 0.01 68 1008.8
20260504193033 65 232 1.0 8.0 0.01 0.01 0.01 66 1008.6
20260504191534 65 360 4.0 12.0 0.01 0.01 0.01 65 1009.4
20260504190037 67 360 2.0 14.0 0.00 0.00 0.00 61 1008.9
20260504184537 68 250 2.0 13.0 0.00 0.00 0.00 60 1008.4
20260504183034 68 360 3.0 19.0 0.00 0.00 0.00 63 1008.1
20260504181534 68 167 3.0 12.0 0.00 0.00 0.00 61 1008.0
20260504180036 67 235 2.0 10.0 0.00 0.00 0.00 62 1008.2
20260504174539 67 185 0.0 9.0 0.00 0.00 0.00 62 1008.0
20260504173032 66 360 3.0 15.0 0.00 0.00 0.00 66 1008.2
20260504171542 64 183 1.0 12.0 0.00 0.00 0.00 63 1008.3
20260504081536 50 202 2.0 8.0 0.00 0.00 0.00 67 1010.7
20260504044540 53 0 2.0 9.0 0.00 0.00 0.00 61 1012.3
20260504043038 53 165 1.0 7.0 0.00 0.00 0.00 61 1012.4
20260504041533 53 188 2.0 9.0 0.00 0.00 0.00 60 1012.6
20260504040035 53 0 1.0 9.0 0.00 0.00 0.00 60 1012.7
20260504034541 53 185 1.0 5.0 0.00 0.00 0.00 62 1012.9
20260504033036 52 214 0.0 5.0 0.00 0.00 0.00 61 1013.0
20260504031532 53 198 0.0 4.0 0.00 0.00 0.00 60 1013.1
20260504030039 53 0 0.0 4.0 0.00 0.00 0.00 60 1013.3
20260504024532 53 0 0.0 4.0 0.00 0.00 0.00 59 1013.6
20260504023034 52 0 0.0 3.0 0.00 0.00 0.00 65 1013.7
20260504021537 51 0 0.0 2.0 0.00 0.00 0.00 67 1013.6
20260504020036 51 0 0.0 0.0 0.00 0.00 0.00 73 1013.5
20260504014548 51 0 0.0 0.0 0.00 0.00 0.00 73 1013.4
20260504013034 51 0 0.0 2.0 0.00 0.00 0.00 72 1013.4
20260504011535 51 0 0.0 6.0 0.00 0.00 0.00 71 1013.6
20260504010033 51 0 0.0 4.0 0.00 0.00 0.00 72 1013.7
20260504004532 51 0 0.0 3.0 0.00 0.00 0.00 72 1013.5
20260504003038 51 0 0.0 2.0 0.00 0.00 0.00 72 1013.2
20260504001535 51 109 0.0 2.0 0.00 0.00 0.00 71 1012.9
20260504000035 51 138 0.0 3.0 0.00 0.00 0.00 70 1012.8
20260503234547 52 101 1.0 4.0 0.00 0.00 0.00 69 1013.0
20260503233033 52 101 0.0 6.0 0.00 0.00 0.00 66 1013.5
20260503231533 53 115 1.0 4.0 0.00 0.00 0.00 65 1013.8
20260503230039 53 38 0.0 3.0 0.00 0.00 0.00 62 1014.1
20260503224533 54 0 0.0 4.0 0.00 0.00 0.00 64 1014.1
20260503223035 54 42 0.0 4.0 0.00 0.00 0.00 61 1014.5
20260503221538 53 29 1.0 4.0 0.00 0.00 0.00 61 1014.5
20260503220043 52 346 0.0 3.0 0.00 0.00 0.00 65 1014.6
20260503214533 51 0 0.0 5.0 0.00 0.00 0.00 65 1014.8
20260503213033 52 239 1.0 11.0 0.00 0.00 0.00 60 1015.2
20260503211535 54 276 1.0 13.0 0.00 0.00 0.00 53 1015.3
20260503210032 56 306 1.0 15.0 0.00 0.00 0.00 46 1015.6
20260503204534 57 235 1.0 14.0 0.00 0.00 0.00 43 1015.1
20260503203034 58 360 2.0 11.0 0.00 0.00 0.00 40 1015.0